User: anonymous   Login
Location: Newark
(35.5300°N, 14.3000°E)
Time: 14:56:01
(UTC+00:00)
Language:

SR - Orbit

View from above orbital plane
View from above orbital plane
View from above satellite
View from above satellite

Ground track
Ground track

The orbit data is extracted from the following two-line orbital elements,

1    46U 60007B   19318.18719425 -.00000005  00000-0  22091-4 0  9996
2    46  66.6901 270.8734 0217110 291.6226  66.1879 14.49257602107769
Epoch (UTC): 14 November 2019 04:29:33
Eccentricity: 0.0217110
inclination: 66.6901°
perigee height: 574 km
apogee height: 882 km
right ascension of ascending node: 270.8734°
argument of perigee: 291.6226°
revolutions per day: 14.49257602
mean anomaly at epoch: 66.1879°
orbit number at epoch: 10776

The dashed part of the orbit path shows where the satellite is in the earth's shadow,  

DLR